Time,TemperatureF,DewpointF,PressureIn,WindDirection,WindDirectionDegrees,WindSpeedMPH,WindSpeedGustMPH,Humidity,HourlyPrecipIn,Conditions,Clouds,dailyrainin,SoftwareType,DateUTC
2013-07-08 00:01:00,80.0,-99.9,30.11,South,179,6.0,6.0,-999,-99.99,,,-99.99,,2013-07-08 05:01:00,
2013-07-08 00:12:00,80.0,-99.9,30.11,South,183,4.0,4.0,-999,-99.99,,,-99.99,,2013-07-08 05:12:00,
2013-07-08 00:22:00,80.0,-99.9,30.11,South,176,5.0,5.0,-999,-99.99,,,-99.99,,2013-07-08 05:22:00,
2013-07-08 00:34:00,80.0,-99.9,30.11,South,184,5.0,6.0,-999,-99.99,,,-99.99,,2013-07-08 05:34:00,
2013-07-08 00:43:00,80.0,-99.9,30.11,South,191,5.0,5.0,-999,-99.99,,,-99.99,,2013-07-08 05:43:00,
2013-07-08 00:53:00,80.0,-99.9,30.11,South,187,5.0,5.0,-999,-99.99,,,-99.99,,2013-07-08 05:53:00,
2013-07-08 01:01:00,80.0,-99.9,30.11,South,183,4.0,4.0,-999,-99.99,,,-99.99,,2013-07-08 06:01:00,
2013-07-08 01:12:00,80.0,-99.9,30.11,South,181,4.0,4.0,-999,-99.99,,,-99.99,,2013-07-08 06:12:00,
2013-07-08 01:22:00,80.0,-99.9,30.11,SSW,194,2.0,3.0,-999,-99.99,,,-99.99,,2013-07-08 06:22:00,
2013-07-08 01:34:00,80.0,-99.9,30.11,SW,216,2.0,2.0,-999,-99.99,,,-99.99,,2013-07-08 06:34:00,
2013-07-08 01:53:00,80.0,-99.9,30.10,SSW,203,4.0,4.0,-999,-99.99,,,-99.99,,2013-07-08 06:53:00,
2013-07-08 02:02:00,80.0,-99.9,30.10,SSW,210,4.0,4.0,-999,-99.99,,,-99.99,,2013-07-08 07:02:00,
2013-07-08 02:12:00,80.0,-99.9,30.10,SSW,213,4.0,4.0,-999,-99.99,,,-99.99,,2013-07-08 07:12:00,
2013-07-08 02:22:00,78.0,-99.9,30.09,NW,322,10.0,12.0,-999,-99.99,,,-99.99,,2013-07-08 07:22:00,
2013-07-08 02:34:00,78.0,-99.9,30.09,NW,317,11.0,13.0,-999,-99.99,,,-99.99,,2013-07-08 07:34:00,
2013-07-08 02:44:00,77.0,-99.9,30.09,NW,317,11.0,12.0,-999,-99.99,,,-99.99,,2013-07-08 07:44:00,
2013-07-08 02:53:00,78.0,-99.9,30.09,NW,320,10.0,11.0,-999,-99.99,,,-99.99,,2013-07-08 07:53:00,
2013-07-08 03:02:00,77.0,-99.9,30.09,NW,318,11.0,11.0,-999,-99.99,,,-99.99,,2013-07-08 08:02:00,
2013-07-08 03:12:00,77.0,-99.9,30.09,NW,309,11.0,12.0,-999,-99.99,,,-99.99,,2013-07-08 08:12:00,
2013-07-08 03:22:00,77.0,-99.9,30.09,NW,320,9.0,9.0,-999,-99.99,,,-99.99,,2013-07-08 08:22:00,
2013-07-08 03:34:00,77.0,-99.9,30.09,NW,307,9.0,11.0,-999,-99.99,,,-99.99,,2013-07-08 08:34:00,
2013-07-08 03:42:00,77.0,-99.9,30.09,WNW,286,6.0,7.0,-999,-99.99,,,-99.99,,2013-07-08 08:42:00,
2013-07-08 03:53:00,77.0,-99.9,30.08,WNW,290,7.0,8.0,-999,-99.99,,,-99.99,,2013-07-08 08:53:00,
2013-07-08 04:02:00,77.0,-99.9,30.09,WNW,293,6.0,9.0,-999,-99.99,,,-99.99,,2013-07-08 09:02:00,
2013-07-08 04:11:00,77.0,-99.9,30.09,WNW,295,4.0,5.0,-999,-99.99,,,-99.99,,2013-07-08 09:11:00,
2013-07-08 04:22:00,77.0,-99.9,30.09,NNW,328,3.0,4.0,-999,-99.99,,,-99.99,,2013-07-08 09:22:00,
2013-07-08 04:34:00,77.0,-99.9,30.09,NNW,341,2.0,3.0,-999,-99.99,,,-99.99,,2013-07-08 09:34:00,
2013-07-08 04:43:00,77.0,-99.9,30.09,NNE,19,4.0,4.0,-999,-99.99,,,-99.99,,2013-07-08 09:43:00,
2013-07-08 04:53:00,77.0,-99.9,30.09,NNE,12,4.0,5.0,-999,-99.99,,,-99.99,,2013-07-08 09:53:00,
2013-07-08 05:02:00,77.0,-99.9,30.09,NNE,28,3.0,4.0,-999,-99.99,,,-99.99,,2013-07-08 10:02:00,
2013-07-08 05:11:00,77.0,-99.9,30.09,ENE,58,4.0,5.0,-999,-99.99,,,-99.99,,2013-07-08 10:11:00,
2013-07-08 05:22:00,77.0,-99.9,30.09,ENE,67,5.0,6.0,-999,-99.99,,,-99.99,,2013-07-08 10:22:00,
2013-07-08 05:34:00,77.0,-99.9,30.09,East,81,5.0,5.0,-999,-99.99,,,-99.99,,2013-07-08 10:34:00,
2013-07-08 05:53:00,78.0,-99.9,30.09,East,82,6.0,7.0,-999,-99.99,,,-99.99,,2013-07-08 10:53:00,
2013-07-08 06:02:00,77.0,-99.9,30.09,East,95,8.0,9.0,-999,-99.99,,,-99.99,,2013-07-08 11:02:00,
2013-07-08 06:11:00,77.0,-99.9,30.09,East,97,8.0,9.0,-999,-99.99,,,-99.99,,2013-07-08 11:11:00,
2013-07-08 06:23:00,77.0,-99.9,30.09,ESE,105,9.0,11.0,-999,-99.99,,,-99.99,,2013-07-08 11:23:00,
2013-07-08 06:34:00,77.0,-99.9,30.10,East,96,9.0,9.0,-999,-99.99,,,-99.99,,2013-07-08 11:34:00,
2013-07-08 06:43:00,77.0,-99.9,30.10,East,98,9.0,10.0,-999,-99.99,,,-99.99,,2013-07-08 11:43:00,
2013-07-08 06:53:00,77.0,-99.9,30.11,East,94,9.0,11.0,-999,-99.99,,,-99.99,,2013-07-08 11:53:00,
2013-07-08 07:02:00,77.0,-99.9,30.11,East,96,9.0,11.0,-999,-99.99,,,-99.99,,2013-07-08 12:02:00,
2013-07-08 07:12:00,77.0,-99.9,30.11,East,79,8.0,9.0,-999,-99.99,,,-99.99,,2013-07-08 12:12:00,
2013-07-08 07:22:00,77.0,-99.9,30.12,East,83,7.0,9.0,-999,-99.99,,,-99.99,,2013-07-08 12:22:00,
2013-07-08 07:34:00,77.0,-99.9,30.12,East,82,7.0,9.0,-999,-99.99,,,-99.99,,2013-07-08 12:34:00,
2013-07-08 07:43:00,77.0,-99.9,30.12,East,83,7.0,9.0,-999,-99.99,,,-99.99,,2013-07-08 12:43:00,
2013-07-08 07:53:00,78.0,-99.9,30.13,ENE,78,8.0,9.0,-999,-99.99,,,-99.99,,2013-07-08 12:53:00,
2013-07-08 08:02:00,78.0,-99.9,30.13,ENE,78,6.0,7.0,-999,-99.99,,,-99.99,,2013-07-08 13:02:00,
2013-07-08 08:11:00,78.0,-99.9,30.14,East,79,7.0,9.0,-999,-99.99,,,-99.99,,2013-07-08 13:11:00,
2013-07-08 08:22:00,78.0,-99.9,30.14,East,81,7.0,9.0,-999,-99.99,,,-99.99,,2013-07-08 13:22:00,
2013-07-08 08:33:00,78.0,-99.9,30.14,East,79,7.0,8.0,-999,-99.99,,,-99.99,,2013-07-08 13:33:00,
2013-07-08 08:43:00,78.0,-99.9,30.15,East,80,6.0,7.0,-999,-99.99,,,-99.99,,2013-07-08 13:43:00,
2013-07-08 08:53:00,78.0,-99.9,30.15,East,81,6.0,7.0,-999,-99.99,,,-99.99,,2013-07-08 13:53:00,
2013-07-08 09:02:00,78.0,-99.9,30.15,ENE,74,6.0,7.0,-999,-99.99,,,-99.99,,2013-07-08 14:02:00,
2013-07-08 09:12:00,78.0,-99.9,30.16,ENE,67,6.0,7.0,-999,-99.99,,,-99.99,,2013-07-08 14:12:00,
2013-07-08 09:23:00,78.0,-99.9,30.16,ENE,65,6.0,6.0,-999,-99.99,,,-99.99,,2013-07-08 14:23:00,
2013-07-08 09:34:00,79.0,-99.9,30.16,ENE,57,6.0,7.0,-999,-99.99,,,-99.99,,2013-07-08 14:34:00,
2013-07-08 09:43:00,79.0,-99.9,30.16,NE,55,7.0,8.0,-999,-99.99,,,-99.99,,2013-07-08 14:43:00,
2013-07-08 09:53:00,79.0,-99.9,30.16,NE,53,7.0,9.0,-999,-99.99,,,-99.99,,2013-07-08 14:53:00,
2013-07-08 10:02:00,79.0,-99.9,30.16,ENE,59,8.0,9.0,-999,-99.99,,,-99.99,,2013-07-08 15:02:00,
2013-07-08 10:12:00,79.0,-99.9,30.16,ENE,59,7.0,9.0,-999,-99.99,,,-99.99,,2013-07-08 15:12:00,
2013-07-08 10:33:00,79.0,-99.9,30.16,ENE,60,7.0,7.0,-999,-99.99,,,-99.99,,2013-07-08 15:33:00,
2013-07-08 10:43:00,79.0,-99.9,30.17,ENE,63,7.0,8.0,-999,-99.99,,,-99.99,,2013-07-08 15:43:00,
2013-07-08 10:53:00,79.0,-99.9,30.17,ENE,64,7.0,8.0,-999,-99.99,,,-99.99,,2013-07-08 15:53:00,
2013-07-08 11:02:00,79.0,-99.9,30.17,ENE,67,8.0,9.0,-999,-99.99,,,-99.99,,2013-07-08 16:02:00,
2013-07-08 11:11:00,80.0,-99.9,30.16,ENE,73,7.0,9.0,-999,-99.99,,,-99.99,,2013-07-08 16:11:00,
2013-07-08 11:34:00,81.0,-99.9,30.17,ESE,115,9.0,12.0,-999,-99.99,,,-99.99,,2013-07-08 16:34:00,
2013-07-08 11:43:00,80.0,-99.9,30.16,East,99,9.0,11.0,-999,-99.99,,,-99.99,,2013-07-08 16:43:00,
2013-07-08 11:58:00,81.0,-99.9,30.17,ESE,112,8.0,10.0,-999,-99.99,,,-99.99,,2013-07-08 16:58:00,
2013-07-08 12:08:00,81.0,-99.9,30.17,SE,125,9.0,10.0,-999,-99.99,,,-99.99,,2013-07-08 17:08:00,
2013-07-08 12:15:00,81.0,-99.9,30.17,SE,125,9.0,10.0,-999,-99.99,,,-99.99,,2013-07-08 17:15:00,
2013-07-08 12:37:00,80.0,-99.9,30.17,SSE,153,9.0,10.0,-999,-99.99,,,-99.99,,2013-07-08 17:37:00,
2013-07-08 12:48:00,81.0,-99.9,30.16,SE,136,7.0,9.0,-999,-99.99,,,-99.99,,2013-07-08 17:48:00,
2013-07-08 13:14:00,81.0,-99.9,30.16,SE,126,11.0,13.0,-999,-99.99,,,-99.99,,2013-07-08 18:14:00,
2013-07-08 13:36:00,80.0,-99.9,30.16,SSE,154,15.0,17.0,-999,-99.99,,,-99.99,,2013-07-08 18:36:00,
2013-07-08 13:46:00,79.0,-99.9,30.16,SSE,160,16.0,18.0,-999,-99.99,,,-99.99,,2013-07-08 18:46:00,
2013-07-08 14:15:00,78.0,-99.9,30.16,SSE,168,12.0,13.0,-999,-99.99,,,-99.99,,2013-07-08 19:15:00,
2013-07-08 14:22:00,79.0,-99.9,30.16,SSE,164,11.0,12.0,-999,-99.99,,,-99.99,,2013-07-08 19:22:00,
2013-07-08 14:36:00,79.0,-99.9,30.16,SSE,164,11.0,12.0,-999,-99.99,,,-99.99,,2013-07-08 19:36:00,
2013-07-08 15:24:00,80.0,-99.9,30.14,South,186,9.0,9.0,-999,-99.99,,,-99.99,,2013-07-08 20:24:00,
2013-07-08 15:34:00,81.0,-99.9,30.14,SSW,195,6.0,8.0,-999,-99.99,,,-99.99,,2013-07-08 20:34:00,
2013-07-08 15:50:00,81.0,-99.9,30.14,South,189,5.0,7.0,-999,-99.99,,,-99.99,,2013-07-08 20:50:00,
2013-07-08 16:10:00,80.0,-99.9,30.14,South,178,6.0,7.0,-999,-99.99,,,-99.99,,2013-07-08 21:10:00,
2013-07-08 16:48:00,81.0,-99.9,30.12,North,7,2.0,3.0,-999,-99.99,,,-99.99,,2013-07-08 21:48:00,
2013-07-08 16:59:00,80.0,-99.9,30.12,SSW,201,4.0,6.0,-999,-99.99,,,-99.99,,2013-07-08 21:59:00,
2013-07-08 17:00:00,80.0,-99.9,30.12,North,360,4.0,4.0,-999,-99.99,,,-99.99,,2013-07-08 22:00:00,
2013-07-08 17:18:00,80.0,-99.9,30.13,North,349,6.0,6.0,-999,-99.99,,,-99.99,,2013-07-08 22:18:00,
2013-07-08 18:18:00,81.0,-99.9,30.14,SE,132,2.0,2.0,-999,-99.99,,,-99.99,,2013-07-08 23:18:00,
2013-07-08 18:36:00,80.0,-99.9,30.13,ESE,113,1.0,2.0,-999,-99.99,,,-99.99,,2013-07-08 23:36:00,
2013-07-08 19:48:00,80.0,-99.9,30.11,South,174,4.0,5.0,-999,-99.99,,,-99.99,,2013-07-09 00:48:00,
2013-07-08 20:00:00,80.0,-99.9,30.12,SSW,193,2.0,2.0,-999,-99.99,,,-99.99,,2013-07-09 01:00:00,
2013-07-08 22:02:00,80.0,-99.9,30.14,NW,318,3.0,4.0,-999,-99.99,,,-99.99,,2013-07-09 03:02:00,
2013-07-08 22:13:00,80.0,-99.9,30.15,North,358,2.0,3.0,-999,-99.99,,,-99.99,,2013-07-09 03:13:00,
2013-07-08 22:27:00,80.0,-99.9,30.15,North,7,2.0,3.0,-999,-99.99,,,-99.99,,2013-07-09 03:27:00,
2013-07-08 22:36:00,80.0,-99.9,30.16,NE,44,3.0,4.0,-999,-99.99,,,-99.99,,2013-07-09 03:36:00,
2013-07-08 22:49:00,80.0,-99.9,30.16,ENE,73,4.0,4.0,-999,-99.99,,,-99.99,,2013-07-09 03:49:00,
2013-07-08 23:02:00,80.0,-99.9,30.16,ESE,103,3.0,4.0,-999,-99.99,,,-99.99,,2013-07-09 04:02:00,
2013-07-08 23:11:00,80.0,-99.9,30.16,ENE,58,3.0,3.0,-999,-99.99,,,-99.99,,2013-07-09 04:11:00,
2013-07-08 23:22:00,80.0,-99.9,30.15,ENE,65,1.0,1.0,-999,-99.99,,,-99.99,,2013-07-09 04:22:00,
2013-07-08 23:34:00,80.0,-99.9,30.15,ESE,107,3.0,4.0,-999,-99.99,,,-99.99,,2013-07-09 04:34:00,
2013-07-08 23:43:00,80.0,-99.9,30.15,SE,135,4.0,5.0,-999,-99.99,,,-99.99,,2013-07-09 04:43:00,
2013-07-08 23:53:00,80.0,-99.9,30.16,ESE,119,4.0,5.0,-999,-99.99,,,-99.99,,2013-07-09 04:53:00,